Погода в Молодёжном

Россия / Иркутская область     52°13′57″N   104°25′03″E
темп.,
°C
ветер,
м/с
пор.,
м/с
влажн.,
%
обл.,
%
осадки,
мм/ч
давл.,
гПа
погр.,
м
10 мая, пн
пн1023:00+6сз2692100 0.8 1012295
02:00+5сз2790100 0.9 1012339
05:00+4сз4894100 0.6 1013693
08:00+4зсз4890100 1.0 1014918
11:00+4сз4896100 0.5 1015737
14:00+4сз4993100 0.8 1016766
17:00+5сз588998 0.3 1016797
20:00+4сз5985100 0.4 1018856
11 мая, вт
вт1123:00+3зсз51196100 4.0 1018877
02:00+3сз51197100 9.7 1018868
05:00+4сз51093100 0.4 1018871
08:00+4зсз4992100 0.4 1020910
11:00+7зсз4782100 0.1 10191019
14:00+10зсз466455 0.1 10171349
17:00+13сз354669 0.1 10151954
20:00+9з11655 0.2 101511
12 мая, ср
ср1223:00+4ююв11875 0.0 101711
02:00+3ююв11882 0.0 101610
05:00+2ююв118975 0.0 101510
08:00+8сз126868 0.0 1014248
11:00+12зсз345571 0.1 10121040
14:00+13ссз465496 1.5 10101864
17:00+11с576292 1.1 10111483
20:00+8ссз2468100 1.2 1013121
13 мая, чт
чт1323:00+5зсз31087100 0.2 1015513
02:00+4сз2585100 0.3 1015197
05:00+1сз129257 0.0 101728
08:00+4зсз35665 0.0 1018539
11:00+8ссз5835100 0.1 10172602
14:00+9сз583098 0.1 10162812
17:00+9ссз683067 0.0 10162633
20:00+7ссз37424 0.0 1018237
14 мая, пт
пт1423:00+2з11550 0.0 102111
02:000ююз11610 0.0 102210
05:000юв11640 0.0 102210
08:00+6ююв23420 0.0 1020288
11:00+12ююв45260 0.0 10161269
14:00+14ю45210 0.0 10131340
17:00+16ююв45270 0.0 10101234
20:00+10ююв23485 0.0 100964